DIRECTV 9S (29494 NORAD) Tracking and Keplerian Element Data

This shows tracking and keplerian element data for the satellite.

Feedback or suggestion? Click here.




ElementValue
Catalog29494
NameDIRECTV 9S
Epoch Orbit4524
Epoch Day286.59993219
Epoch Year2024
RAAN88.169
Inclination0.8289
Eccentricity0.0003174
Argument of Perigee120.8849
Mean Anonmoly287.4056
Mean Motion1.00270902
Decay Rate-1.12E-06
L11 29494U 06043A 24286.59993219 -.00000112 00000+0 00000+0 0 9993
L22 29494 0.8289 88.1690 0003174 120.8849 287.4056 1.00270902 45244



Live tracking and technical data element details for DIRECTV 9S (NORAD 29494). DIRECTV 9S can be tracked NOW for your location showing map with azimuth and elevation plus other details from your city location.







IsCatalogInMostPopularTable: catalog: 29494, numindb: 608
Update: records affected: 1



GetName: 29494 DIRECTV 9S

Hit Count: updated at: Tue, 03 Dec 2024 03:33:50 GMT